Location: Bocchiglicro
(39.4167°N, 16.7500°E)
Time: 18:03:29
(UTC+00:00)

Cosmos 1538 Rocket - Pass Details

Date: 07 June 2020
Orbit: 752 x 792 km, 74.0° (Epoch: 04 July)

Event Time Altitude Azimuth Distance (km) Brightness Sun altitude
Exits shadow 01:59:22 17° 198° (SSW) 1,886 5.5 -14.0°
Maximum altitude 02:03:31 88° 285° (WNW) 796 4.0 -13.4°
Drops below altitude 10° 02:08:55 10° 18° (NNE) 2,365 7.6 -12.7°
Sets 02:11:20 0° 19° (NNE) 3,298 8.5 -12.3°
